EDT,Max TemperatureF,Mean TemperatureF,Min TemperatureF,Max Dew PointF,MeanDew PointF,Min DewpointF,Max Humidity, Mean Humidity, Min Humidity, Max Sea Level PressureIn, Mean Sea Level PressureIn, Min Sea Level PressureIn, Max VisibilityMiles, Mean VisibilityMiles, Min VisibilityMiles, Max Wind SpeedMPH, Mean Wind SpeedMPH, Max Gust SpeedMPH,PrecipitationIn, CloudCover, Events, WindDirDegrees
2012-10-1,68,53,37,47,40,34,100,71,42,29.94,29.89,29.82,10,7,0,12,3,15,0.00,1,Fog,212
2012-10-2,61,54,47,50,48,44,93,79,64,30.00,29.91,29.84,10,8,2,6,1,8,0.00,6,,107
2012-10-3,70,58,45,52,46,43,93,66,39,30.04,30.01,29.98,10,7,2,10,3,13,0.03,2,Rain,91
2012-10-4,70,62,54,55,53,50,93,73,53,29.99,29.91,29.79,10,7,2,16,5,21,0.17,6,Rain,228
2012-10-5,53,47,41,50,34,27,77,60,42,29.88,29.85,29.80,10,10,10,20,11,27,T,6,,262
2012-10-6,46,40,33,37,31,26,89,69,49,30.08,29.88,29.73,10,9,5,23,11,30,0.09,7,Rain,296
2012-10-7,49,40,30,33,30,26,92,67,42,30.09,30.05,30.00,10,10,10,16,6,22,0.00,5,,219
2012-10-8,56,43,30,36,31,25,89,64,38,30.01,29.96,29.89,10,10,10,22,9,31,0.00,5,,180
2012-10-9,51,46,40,47,42,33,93,75,56,29.86,29.73,29.64,10,7,2,17,8,24,0.81,8,Rain,191
2012-10-10,45,40,35,37,34,29,92,79,65,29.98,29.78,29.64,10,9,1,23,11,34,0.37,7,Rain-Snow,273
2012-10-11,44,39,33,36,31,29,89,73,57,30.15,29.94,29.82,10,6,0,26,8,39,0.53,7,Fog-Rain-Snow,274
2012-10-12,44,36,28,35,30,24,85,77,69,30.42,30.36,30.18,10,7,0,12,3,15,0.13,5,Fog-Rain-Snow,213
2012-10-13,46,40,33,44,38,28,96,81,65,30.31,29.96,29.77,10,5,2,14,6,20,0.27,7,Rain,130
2012-10-14,48,45,41,45,43,37,93,88,82,29.78,29.60,29.37,10,4,0,17,7,24,0.97,8,Fog-Rain,52
2012-10-15,47,43,39,37,33,28,86,72,57,29.90,29.67,29.38,10,10,6,21,11,29,0.16,8,Rain,331
2012-10-16,48,40,31,43,36,27,89,77,64,29.92,29.80,29.67,10,9,5,14,6,21,0.16,6,Rain,113
2012-10-17,63,55,47,51,47,42,86,73,60,29.67,29.54,29.47,10,10,9,17,9,24,0.04,4,Rain,105
2012-10-18,58,52,46,52,48,42,93,80,67,29.64,29.44,29.36,10,9,3,21,10,33,0.30,7,Rain,119
2012-10-19,54,50,45,47,44,41,93,80,66,29.67,29.64,29.62,10,10,9,15,7,23,0.02,7,Rain-Thunderstorm,96
2012-10-20,58,49,39,45,41,37,86,69,51,29.78,29.68,29.62,10,10,10,12,5,16,0.00,5,,340
2012-10-21,60,52,44,46,43,39,93,71,49,30.02,29.93,29.80,10,9,0,12,6,17,0.00,3,Fog,264
2012-10-22,63,53,43,46,43,40,96,74,52,30.06,30.04,30.01,10,9,5,7,3,10,0.00,1,,73
2012-10-23,58,52,46,43,41,39,86,71,55,30.08,30.05,30.03,10,10,10,16,10,25,T,5,,95
2012-10-24,53,51,48,52,48,41,100,87,74,30.05,29.98,29.91,10,4,0,20,10,26,0.02,8,Fog-Rain,114
2012-10-25,73,60,47,59,54,45,93,77,61,29.89,29.71,29.56,10,5,1,20,12,27,0.66,7,Rain,118
2012-10-26,48,44,39,44,35,27,93,70,46,30.26,30.02,29.72,10,10,4,21,11,29,0.06,6,Rain,284
2012-10-27,47,39,31,32,27,23,76,61,45,30.31,30.28,30.25,10,10,10,13,4,18,T,6,Rain,305
2012-10-28,47,41,35,28,24,21,64,51,38,30.36,30.33,30.30,10,10,10,13,7,19,0.00,3,,5
2012-10-29,43,38,33,22,18,13,61,47,33,30.32,30.25,30.09,10,10,10,18,11,28,0.00,0,,1
2012-10-30,37,36,34,29,26,19,82,67,52,30.07,29.82,29.71,10,8,2,22,12,31,0.46,7,Rain-Snow,2
2012-10-31,40,38,35,30,28,27,76,70,64,29.70,29.65,29.60,10,10,8,20,11,27,0.02,8,Rain,341